DW5091 Weather Reports


Display with metric or nautical units.
time (UTC)temp
F
wind
direction
speed
MPH
gust
MPH
rain 1hr
in
rain 24hr
in
rain mn
in
humidity
%
barometer
mb
20260505200603 52 347 5.0 7.0 0.00 0.00 0.00 74 1013.9
20260505195103 53 340 5.0 8.0 0.00 0.00 0.00 73 1013.7
20260505194603 53 0 3.0 6.0 0.00 0.00 0.00 73 1013.6
20260505192603 54 345 3.0 8.0 0.00 0.00 0.00 71 1013.5
20260505192103 54 355 5.0 8.0 0.00 0.00 0.00 71 1013.6
20260505191603 55 348 5.0 8.0 0.00 0.00 0.00 70 1013.5
20260505191103 55 1 8.0 12.0 0.00 0.00 0.00 69 1013.5
20260505185103 56 352 7.0 9.0 0.00 0.00 0.00 69 1013.3
20260505183603 56 342 7.0 13.0 0.00 0.00 0.00 68 1013.3
20260505183103 56 353 5.0 12.0 0.00 0.00 0.00 69 1013.2
20260505182603 57 341 6.0 12.0 0.00 0.00 0.00 68 1013.2
20260505180603 57 343 6.0 12.0 0.00 0.00 0.00 66 1013.2
20260505175603 58 342 6.0 13.0 0.00 0.00 0.00 65 1013.2
20260505174603 58 332 5.0 12.0 0.00 0.00 0.00 64 1013.1
20260505173104 58 1 8.0 13.0 0.00 0.00 0.00 62 1013.2
20260505172604 58 338 6.0 17.0 0.00 0.00 0.00 62 1013.1
20260505172103 58 2 5.0 10.0 0.00 0.00 0.00 62 1013.2
20260505170604 58 3 5.0 12.0 0.00 0.00 0.00 62 1013.2
20260505165103 59 356 5.0 12.0 0.00 0.00 0.00 62 1013.2
20260505164104 59 344 4.0 8.0 0.00 0.00 0.00 61 1013.3
20260505162603 59 354 7.0 17.0 0.00 0.00 0.00 60 1013.2
20260505161104 59 355 6.0 10.0 0.00 0.00 0.00 60 1013.1
20260505153104 59 350 5.0 12.0 0.00 0.00 0.00 58 1013.2
20260505152604 59 338 6.0 10.0 0.00 0.00 0.00 58 1013.2
20260505152103 59 351 9.0 13.0 0.00 0.00 0.00 57 1013.2
20260505151603 60 342 4.0 12.0 0.00 0.00 0.00 58 1013.2
20260505124103 58 349 6.0 12.0 0.00 0.00 0.00 65 1013.9
20260505123603 59 349 11.0 17.0 0.00 0.00 0.00 63 1013.8
20260505122603 58 5 6.0 12.0 0.00 0.00 0.00 65 1013.9
20260505121604 58 345 6.0 17.0 0.00 0.00 0.00 65 1013.9
20260505121103 58 355 9.0 12.0 0.00 0.00 0.00 64 1014.0
20260505120103 59 21 6.0 12.0 0.00 0.00 0.00 65 1013.9
20260505114604 59 353 8.0 16.0 0.00 0.00 0.00 64 1014.0
20260505113603 59 345 6.0 13.0 0.00 0.00 0.00 64 1014.0
20260505113104 59 350 7.0 14.0 0.00 0.00 0.00 62 1014.0
20260505111103 58 4 6.0 14.0 0.00 0.00 0.00 64 1014.2
20260505110604 58 6 5.0 12.0 0.00 0.00 0.00 64 1014.2
20260505102103 56 353 8.0 15.0 0.00 0.00 0.00 70 1014.4
20260505101603 56 344 7.0 13.0 0.00 0.00 0.00 69 1014.5
20260505095602 55 354 3.0 8.0 0.00 0.00 0.00 74 1014.7
20260505094103 54 2 6.0 14.0 0.00 0.00 0.00 74 1014.8
20260505092603 54 355 8.0 14.0 0.00 0.00 0.00 73 1014.8
20260505091103 53 355 5.0 10.0 0.00 0.00 0.00 75 1014.8
20260505085603 54 352 6.0 12.0 0.00 0.00 0.00 73 1014.7
20260505083603 53 3 4.0 12.0 0.00 0.00 0.00 76 1015.0
20260505082104 53 331 3.0 12.0 0.00 0.00 0.00 77 1014.9
20260505081103 52 353 4.0 12.0 0.00 0.00 0.00 80 1015.0
20260505080603 51 1 7.0 15.0 0.00 0.00 0.00 79 1015.1
20260505075603 51 2 5.0 9.0 0.00 0.00 0.00 82 1015.1
20260505074603 51 356 5.0 8.0 0.00 0.00 0.00 83 1015.1
20260505073603 50 358 6.0 10.0 0.00 0.00 0.00 85 1015.2
20260505073103 50 351 6.0 9.0 0.00 0.00 0.00 86 1015.2
20260505071603 49 3 5.0 10.0 0.00 0.00 0.00 88 1015.2
20260505071104 49 346 5.0 12.0 0.00 0.00 0.00 88 1015.2
20260505070104 48 3 8.0 16.0 0.00 0.00 0.00 90 1015.1
20260505065604 48 356 6.0 12.0 0.00 0.00 0.00 91 1015.2
20260505065104 48 357 6.0 10.0 0.00 0.00 0.00 91 1015.2
20260505064603 48 356 3.0 9.0 0.00 0.00 0.00 92 1015.1
20260505061603 47 346 3.0 5.0 0.00 0.00 0.00 95 1015.0
20260505060103 47 356 2.0 3.0 0.00 0.00 0.00 94 1015.0
20260505054605 48 346 3.0 6.0 0.00 0.00 0.00 93 1014.8
20260505054104 48 350 2.0 7.0 0.00 0.00 0.00 93 1014.7
20260505053104 48 9 1.0 3.0 0.00 0.00 0.00 94 1014.7
20260505052103 47 346 2.0 5.0 0.00 0.00 0.00 95 1014.6
20260505051605 47 14 0.0 2.0 0.00 0.00 0.00 95 1014.7
20260505051103 47 23 0.0 1.0 0.00 0.00 0.00 95 1014.6
20260505050603 47 25 0.0 1.0 0.00 0.00 0.00 95 1014.7
20260505050103 47 25 0.0 2.0 0.00 0.00 0.00 95 1014.7
20260505041103 47 43 0.0 1.0 0.00 0.00 0.00 95 1015.1
20260505035603 48 36 1.0 3.0 0.00 0.00 0.00 95 1015.1
20260505034103 48 334 1.0 3.0 0.00 0.00 0.00 94 1015.0
20260505033603 48 15 1.0 3.0 0.00 0.00 0.00 94 1015.0
20260505032604 48 9 2.0 5.0 0.00 0.00 0.00 94 1014.9
20260505031603 49 0 2.0 5.0 0.00 0.00 0.00 94 1014.9
20260505025104 50 347 2.0 3.0 0.00 0.00 0.00 93 1014.8
20260505024603 50 358 3.0 7.0 0.00 0.00 0.00 93 1014.8
20260505024103 50 335 3.0 7.0 0.00 0.00 0.00 92 1014.8
20260505023603 50 340 2.0 3.0 0.00 0.00 0.00 92 1014.7
20260505023103 51 355 3.0 3.0 0.00 0.00 0.00 91 1014.7
20260505022603 51 343 3.0 6.0 0.00 0.00 0.00 91 1014.8
20260505020604 51 358 1.0 3.0 0.00 0.00 0.00 91 1014.9
20260505015603 51 328 3.0 5.0 0.00 0.00 0.00 90 1015.1
20260505014104 52 317 1.0 3.0 0.00 0.00 0.00 90 1015.1
20260505013104 52 342 0.0 1.0 0.00 0.00 0.00 90 1015.1
20260505012104 52 22 0.0 1.0 0.00 0.00 0.00 90 1015.1
20260505004603 52 9 0.0 2.0 0.00 0.00 0.00 90 1015.4
20260505004104 52 359 1.0 2.0 0.00 0.00 0.00 89 1015.5
20260505003603 52 354 1.0 3.0 0.00 0.00 0.00 90 1015.5
20260505002104 52 357 1.0 3.0 0.00 0.00 0.00 89 1015.5
20260505001603 52 353 1.0 3.0 0.00 0.00 0.00 89 1015.5
20260505001103 52 2 1.0 2.0 0.00 0.00 0.00 89 1015.6
20260505000603 52 345 1.0 3.0 0.00 0.00 0.00 89 1015.6
20260505000103 52 349 2.0 3.0 0.00 0.00 0.00 89 1015.6
20260504235603 52 343 1.0 5.0 0.00 0.00 0.00 89 1015.6
20260504234603 53 350 0.0 5.0 0.00 0.00 0.00 89 1015.6
20260504233604 53 348 2.0 7.0 0.00 0.00 0.00 88 1015.6
20260504233103 53 353 2.0 6.0 0.00 0.00 0.00 88 1015.7
20260504232603 53 14 4.0 8.0 0.00 0.00 0.00 87 1015.6
20260504232102 53 358 3.0 6.0 0.00 0.00 0.00 88 1015.6
20260504231104 53 348 1.0 3.0 0.00 0.00 0.00 88 1015.6
20260504230604 53 352 2.0 7.0 0.00 0.00 0.00 88 1015.5
20260504224603 54 344 3.0 5.0 0.00 0.00 0.00 88 1015.7
20260504224104 54 325 1.0 3.0 0.00 0.00 0.00 88 1015.7
20260504222603 54 350 1.0 3.0 0.00 0.00 0.00 88 1015.8
20260504222103 54 347 1.0 2.0 0.00 0.00 0.00 88 1015.9
20260504214604 54 348 1.0 3.0 0.00 0.00 0.00 87 1015.9
20260504214104 54 15 1.0 3.0 0.00 0.00 0.00 87 1016.0
20260504213604 54 350 0.0 3.0 0.00 0.00 0.00 87 1015.9
20260504205603 55 349 2.0 5.0 0.00 0.00 0.00 86 1015.9
20260504204103 55 347 1.0 3.0 0.00 0.00 0.00 86 1015.9
20260504203604 55 346 1.0 3.0 0.00 0.00 0.00 86 1015.9
20260504203104 55 344 1.0 3.0 0.00 0.00 0.00 85 1015.9
20260504202604 55 314 0.0 3.0 0.00 0.00 0.00 85 1015.8
20260504202103 55 331 1.0 3.0 0.00 0.00 0.00 85 1015.8
20260504201603 55 333 0.0 3.0 0.00 0.00 0.00 85 1015.8
20260504201103 55 308 0.0 3.0 0.00 0.00 0.00 85 1015.7